User: anonymous   Login
Location: Unspecified
(0.0000°N, 0.0000°E)
Time: 21:48:00
(UTC+00:00)
Language:

GONETS M 07 - Orbit

View from above orbital plane
View from above orbital plane
View from above satellite
View from above satellite

Ground track
Ground track

The orbit data is extracted from the following two-line orbital elements,

1 39251U 13048C   17117.76001485 +.00000010 +00000-0 +00000-0 0  9995
2 39251 082.4863 264.9623 0015223 288.1127 071.8295 12.42872613164422
Epoch (UTC): 27 April 2017 18:14:25
Eccentricity: 0.0015223
inclination: 82.4863°
perigee height: 1482 km
apogee height: 1506 km
right ascension of ascending node: 264.9623°
argument of perigee: 288.1127°
revolutions per day: 12.42872613
mean anomaly at epoch: 71.8295°
orbit number at epoch: 16442

The dashed part of the orbit path shows where the satellite is in the earth's shadow,  

DLR